| time (UTC) | temp F | wind direction | speed MPH | gust MPH | rain 1hr in | rain 24hr in | rain mn in | humidity % | barometer mb |
| 20260901063233 | 73 | 210 | 0.0 | 0.0 | 0.00 | 0.00 | 0.00 | 95 | 1011.5 |
| 20260901062633 | 72 | 210 | 0.0 | 0.0 | 0.00 | 0.00 | 0.00 | 96 | 1011.6 |
| 20260901062033 | 72 | 210 | 0.0 | 0.0 | 0.00 | 0.00 | 0.00 | 96 | 1011.4 |
| 20260901061433 | 72 | 209 | 0.0 | 0.0 | 0.00 | 0.00 | 0.00 | 96 | 1011.5 |
| 20260901060833 | 72 | 210 | 0.0 | 0.0 | 0.00 | 0.00 | 0.00 | 96 | 1011.5 |
| 20260901060233 | 72 | 210 | 0.0 | 0.0 | 0.00 | 0.00 | 0.00 | 95 | 1011.5 |
| 20260901055633 | 72 | 209 | 0.0 | 0.0 | 0.00 | 0.00 | 0.00 | 94 | 1011.5 |
| 20260901054434 | 73 | 210 | 0.0 | 0.0 | 0.00 | 0.00 | 0.00 | 92 | 1011.7 |
| 20260901053234 | 74 | 209 | 0.0 | 0.0 | 0.00 | 0.00 | 0.00 | 91 | 1011.5 |
| 20260901052714 | 74 | 209 | 0.0 | 0.0 | 0.00 | 0.00 | 0.00 | 90 | 1011.6 |
| 20260901052154 | 74 | 209 | 0.0 | 1.0 | 0.00 | 0.00 | 0.00 | 90 | 1011.5 |
| 20260901051633 | 74 | 209 | 0.0 | 0.0 | 0.00 | 0.00 | 0.00 | 90 | 1011.5 |
| 20260901051034 | 74 | 209 | 0.0 | 0.0 | 0.00 | 0.00 | 0.00 | 90 | 1011.3 |
| 20260901050434 | 74 | 206 | 0.0 | 0.0 | 0.00 | 0.00 | 0.00 | 89 | 1011.4 |
| 20260901045930 | 74 | 205 | 0.0 | 0.0 | 0.00 | 0.00 | 0.00 | 90 | 1011.4 |
| 20260901045410 | 74 | 205 | 0.0 | 0.0 | 0.00 | 0.00 | 0.00 | 90 | 1011.2 |
| 20260901044333 | 73 | 183 | 0.0 | 0.0 | 0.00 | 0.00 | 0.00 | 95 | 1011.4 |
| 20260901043733 | 72 | 171 | 0.0 | 0.0 | 0.00 | 0.00 | 0.00 | 97 | 1011.4 |
| 20260901043133 | 71 | 163 | 0.0 | 0.0 | 0.00 | 0.00 | 0.00 | 98 | 1011.4 |
| 20260901042533 | 70 | 162 | 0.0 | 0.0 | 0.00 | 0.00 | 0.00 | 98 | 1011.4 |
| 20260901041934 | 70 | 162 | 0.0 | 0.0 | 0.00 | 0.00 | 0.00 | 97 | 1011.6 |
| 20260901041333 | 70 | 162 | 0.0 | 0.0 | 0.00 | 0.00 | 0.00 | 97 | 1011.5 |
| 20260901040818 | 70 | 162 | 0.0 | 0.0 | 0.00 | 0.00 | 0.00 | 97 | 1011.3 |
| 20260901040258 | 70 | 162 | 0.0 | 0.0 | 0.00 | 0.00 | 0.00 | 97 | 1011.5 |
| 20260901035736 | 71 | 162 | 0.0 | 0.0 | 0.00 | 0.00 | 0.00 | 96 | 1011.4 |
| 20260901035133 | 71 | 162 | 0.0 | 0.0 | 0.00 | 0.00 | 0.00 | 96 | 1011.4 |
| 20260901034627 | 71 | 162 | 0.0 | 0.0 | 0.00 | 0.00 | 0.00 | 95 | 1011.5 |
| 20260901034107 | 71 | 162 | 0.0 | 0.0 | 0.00 | 0.00 | 0.00 | 94 | 1011.6 |
| 20260901033546 | 71 | 162 | 0.0 | 0.0 | 0.00 | 0.00 | 0.00 | 94 | 1011.6 |
| 20260901033026 | 72 | 162 | 0.0 | 0.0 | 0.00 | 0.00 | 0.00 | 94 | 1011.4 |
| 20260901032506 | 72 | 162 | 0.0 | 0.0 | 0.00 | 0.00 | 0.00 | 93 | 1011.3 |
| 20260901031946 | 72 | 162 | 0.0 | 0.0 | 0.00 | 0.00 | 0.00 | 91 | 1011.3 |
| 20260901031426 | 73 | 162 | 0.0 | 0.0 | 0.00 | 0.00 | 0.00 | 91 | 1011.6 |
| 20260901030907 | 73 | 162 | 0.0 | 0.0 | 0.00 | 0.00 | 0.00 | 89 | 1011.7 |
| 20260901030346 | 74 | 162 | 0.0 | 0.0 | 0.00 | 0.00 | 0.00 | 88 | 1011.7 |
| 20260901025826 | 75 | 162 | 0.0 | 0.0 | 0.00 | 0.00 | 0.00 | 87 | 1011.7 |
| 20260901025251 | 76 | 162 | 0.0 | 0.0 | 0.00 | 0.00 | 0.00 | 84 | 1011.4 |
| 20260901024730 | 76 | 144 | 0.0 | 0.0 | 0.00 | 0.00 | 0.00 | 83 | 1011.5 |
| 20260901024211 | 76 | 143 | 0.0 | 0.0 | 0.00 | 0.00 | 0.00 | 84 | 1011.4 |
| 20260901023650 | 76 | 148 | 0.0 | 0.0 | 0.00 | 0.00 | 0.00 | 84 | 1011.2 |
| 20260901022610 | 76 | 187 | 0.0 | 0.0 | 0.00 | 0.00 | 0.00 | 82 | 1011.5 |
| 20260901022050 | 76 | 187 | 0.0 | 0.0 | 0.00 | 0.00 | 0.00 | 83 | 1011.1 |
| 20260901021531 | 75 | 187 | 0.0 | 0.0 | 0.00 | 0.00 | 0.00 | 84 | 1010.9 |
| 20260901021010 | 75 | 187 | 0.0 | 0.0 | 0.00 | 0.00 | 0.00 | 83 | 1011.1 |
| 20260901020450 | 74 | 186 | 0.0 | 0.0 | 0.00 | 0.00 | 0.00 | 85 | 1010.9 |
| 20260901015930 | 75 | 167 | 0.0 | 0.0 | 0.00 | 0.00 | 0.00 | 87 | 1010.9 |
| 20260901014850 | 73 | 167 | 0.0 | 0.0 | 0.00 | 0.00 | 0.00 | 90 | 1010.8 |
| 20260901014331 | 72 | 167 | 0.0 | 0.0 | 0.00 | 0.00 | 0.00 | 95 | 1011.0 |
| 20260901013811 | 72 | 167 | 0.0 | 0.0 | 0.00 | 0.00 | 0.00 | 95 | 1010.7 |
| 20260901013250 | 73 | 167 | 0.0 | 0.0 | 0.00 | 0.00 | 0.00 | 95 | 1010.6 |
| 20260901012730 | 73 | 167 | 0.0 | 0.0 | 0.00 | 0.00 | 0.00 | 95 | 1010.9 |
| 20260901012210 | 73 | 167 | 0.0 | 0.0 | 0.00 | 0.00 | 0.00 | 95 | 1010.6 |
| 20260901011651 | 73 | 167 | 0.0 | 0.0 | 0.00 | 0.00 | 0.00 | 95 | 1010.7 |
| 20260901011130 | 73 | 167 | 0.0 | 0.0 | 0.00 | 0.00 | 0.00 | 95 | 1010.7 |
| 20260901010555 | 74 | 167 | 0.0 | 0.0 | 0.00 | 0.00 | 0.00 | 94 | 1010.6 |
| 20260901010034 | 74 | 167 | 0.0 | 0.0 | 0.00 | 0.00 | 0.00 | 94 | 1010.5 |
| 20260901005514 | 74 | 167 | 0.0 | 0.0 | 0.00 | 0.00 | 0.00 | 93 | 1010.5 |
| 20260901004955 | 75 | 167 | 0.0 | 0.0 | 0.00 | 0.00 | 0.00 | 92 | 1010.5 |
| 20260901004433 | 75 | 167 | 0.0 | 0.0 | 0.00 | 0.00 | 0.00 | 91 | 1010.5 |
| 20260901003915 | 76 | 167 | 0.0 | 0.0 | 0.00 | 0.00 | 0.00 | 90 | 1010.4 |
| 20260901003354 | 76 | 167 | 0.0 | 0.0 | 0.00 | 0.00 | 0.00 | 88 | 1010.3 |
| 20260901002834 | 77 | 167 | 0.0 | 0.0 | 0.00 | 0.00 | 0.00 | 87 | 1010.4 |
| 20260901002314 | 77 | 167 | 0.0 | 0.0 | 0.00 | 0.00 | 0.00 | 86 | 1010.4 |
| 20260901001755 | 78 | 167 | 0.0 | 0.0 | 0.00 | 0.00 | 0.00 | 84 | 1010.3 |
| 20260901001233 | 79 | 167 | 0.0 | 0.0 | 0.00 | 0.00 | 0.00 | 82 | 1010.4 |
| 20260901000715 | 81 | 167 | 0.0 | 0.0 | 0.00 | 0.00 | 0.00 | 80 | 1010.4 |
| 20260831235115 | 86 | 167 | 0.0 | 0.0 | 0.00 | 0.00 | 0.00 | 73 | 1010.3 |
| 20260831234555 | 87 | 167 | 0.0 | 0.0 | 0.00 | 0.00 | 0.00 | 71 | 1010.3 |
| 20260831234033 | 87 | 167 | 0.0 | 0.0 | 0.00 | 0.00 | 0.00 | 72 | 1010.3 |
| 20260831233515 | 89 | 167 | 0.0 | 0.0 | 0.00 | 0.00 | 0.00 | 68 | 1010.3 |
| 20260831232955 | 90 | 167 | 0.0 | 0.0 | 0.00 | 0.00 | 0.00 | 67 | 1010.6 |
| 20260831231915 | 93 | 167 | 0.0 | 0.0 | 0.00 | 0.00 | 0.00 | 58 | 1010.4 |
| 20260831231355 | 93 | 167 | 0.0 | 0.0 | 0.00 | 0.00 | 0.00 | 57 | 1010.4 |
| 20260831230833 | 93 | 233 | 0.0 | 0.0 | 0.00 | 0.00 | 0.00 | 51 | 1010.2 |
| 20260831225755 | 94 | 178 | 0.0 | 1.0 | 0.00 | 0.00 | 0.00 | 49 | 1010.4 |
| 20260831225235 | 94 | 236 | 0.0 | 0.0 | 0.00 | 0.00 | 0.00 | 48 | 1010.5 |
| 20260831224715 | 94 | 196 | 0.0 | 0.0 | 0.00 | 0.00 | 0.00 | 49 | 1010.4 |
| 20260831224155 | 94 | 233 | 0.0 | 1.0 | 0.00 | 0.00 | 0.00 | 48 | 1010.4 |
| 20260831223633 | 96 | 212 | 0.0 | 1.0 | 0.00 | 0.00 | 0.00 | 49 | 1010.4 |
| 20260831223115 | 96 | 212 | 0.0 | 1.0 | 0.00 | 0.00 | 0.00 | 50 | 1010.4 |
| 20260831222554 | 95 | 211 | 0.0 | 0.0 | 0.00 | 0.00 | 0.00 | 49 | 1010.7 |
| 20260831222033 | 94 | 208 | 1.0 | 1.0 | 0.00 | 0.00 | 0.00 | 48 | 1010.5 |
| 20260831221515 | 95 | 194 | 2.0 | 3.0 | 0.00 | 0.00 | 0.00 | 47 | 1010.5 |
| 20260831220955 | 95 | 238 | 0.0 | 0.0 | 0.00 | 0.00 | 0.00 | 50 | 1010.3 |
| 20260831220436 | 95 | 247 | 1.0 | 1.0 | 0.00 | 0.00 | 0.00 | 49 | 1010.5 |
| 20260831215833 | 94 | 236 | 0.0 | 1.0 | 0.00 | 0.00 | 0.00 | 48 | 1010.6 |
| 20260831215233 | 94 | 267 | 4.0 | 4.0 | 0.00 | 0.00 | 0.00 | 48 | 1010.5 |
| 20260831214731 | 94 | 246 | 0.0 | 1.0 | 0.00 | 0.00 | 0.00 | 48 | 1010.5 |
| 20260831214211 | 94 | 227 | 1.0 | 2.0 | 0.00 | 0.00 | 0.00 | 48 | 1010.6 |
| 20260831213651 | 95 | 242 | 0.0 | 2.0 | 0.00 | 0.00 | 0.00 | 47 | 1010.5 |
| 20260831212533 | 95 | 245 | 1.0 | 3.0 | 0.00 | 0.00 | 0.00 | 47 | 1010.5 |
| 20260831211933 | 94 | 167 | 1.0 | 2.0 | 0.00 | 0.00 | 0.00 | 47 | 1010.7 |
| 20260831211333 | 95 | 211 | 0.0 | 1.0 | 0.00 | 0.00 | 0.00 | 48 | 1010.5 |
| 20260831210733 | 94 | 192 | 2.0 | 3.0 | 0.00 | 0.00 | 0.00 | 46 | 1010.7 |
| 20260831210227 | 94 | 216 | 1.0 | 2.0 | 0.00 | 0.00 | 0.00 | 48 | 1010.7 |
| 20260831205707 | 95 | 204 | 1.0 | 2.0 | 0.00 | 0.00 | 0.00 | 48 | 1010.6 |
| 20260831205147 | 95 | 268 | 2.0 | 3.0 | 0.00 | 0.00 | 0.00 | 48 | 1010.9 |
| 20260831204034 | 94 | 214 | 0.0 | 2.0 | 0.00 | 0.00 | 0.00 | 49 | 1010.9 |
| 20260831203434 | 95 | 203 | 4.0 | 5.0 | 0.00 | 0.00 | 0.00 | 46 | 1011.1 |
| 20260831202833 | 94 | 143 | 2.0 | 3.0 | 0.00 | 0.00 | 0.00 | 46 | 1011.0 |
| 20260831202233 | 94 | 157 | 1.0 | 1.0 | 0.00 | 0.00 | 0.00 | 48 | 1011.2 |
| 20260831201633 | 94 | 222 | 3.0 | 4.0 | 0.00 | 0.00 | 0.00 | 47 | 1011.0 |
| 20260831201131 | 94 | 242 | 3.0 | 4.0 | 0.00 | 0.00 | 0.00 | 48 | 1011.3 |
| 20260831200611 | 94 | 197 | 1.0 | 2.0 | 0.00 | 0.00 | 0.00 | 49 | 1011.2 |
| 20260831195535 | 94 | 219 | 3.0 | 3.0 | 0.00 | 0.00 | 0.00 | 48 | 1011.5 |
| 20260831195027 | 94 | 196 | 1.0 | 2.0 | 0.00 | 0.00 | 0.00 | 51 | 1011.5 |
| 20260831194507 | 93 | 219 | 2.0 | 3.0 | 0.00 | 0.00 | 0.00 | 49 | 1011.4 |
| 20260831193947 | 93 | 172 | 2.0 | 4.0 | 0.00 | 0.00 | 0.00 | 50 | 1011.6 |
| 20260831193433 | 93 | 219 | 4.0 | 6.0 | 0.00 | 0.00 | 0.00 | 47 | 1011.8 |
| 20260831192233 | 93 | 293 | 1.0 | 2.0 | 0.00 | 0.00 | 0.00 | 47 | 1011.8 |
| 20260831191723 | 94 | 251 | 2.0 | 4.0 | 0.00 | 0.00 | 0.00 | 51 | 1011.8 |
| 20260831191204 | 93 | 218 | 0.0 | 1.0 | 0.00 | 0.00 | 0.00 | 51 | 1012.1 |
| 20260831190643 | 92 | 243 | 5.0 | 8.0 | 0.00 | 0.00 | 0.00 | 51 | 1011.8 |
| 20260831190123 | 92 | 213 | 4.0 | 5.0 | 0.00 | 0.00 | 0.00 | 53 | 1012.1 |
| 20260831185603 | 92 | 267 | 3.0 | 5.0 | 0.00 | 0.00 | 0.00 | 50 | 1012.3 |
| 20260831184523 | 93 | 217 | 0.0 | 0.0 | 0.00 | 0.00 | 0.00 | 50 | 1012.2 |
| 20260831184004 | 92 | 225 | 4.0 | 5.0 | 0.00 | 0.00 | 0.00 | 51 | 1012.5 |
| 20260831183443 | 92 | 280 | 4.0 | 6.0 | 0.00 | 0.00 | 0.00 | 52 | 1012.2 |
| 20260831182833 | 92 | 219 | 1.0 | 2.0 | 0.00 | 0.00 | 0.00 | 53 | 1012.4 |
| 20260831182331 | 92 | 231 | 3.0 | 4.0 | 0.00 | 0.00 | 0.00 | 53 | 1012.5 |
| 20260831181811 | 92 | 246 | 3.0 | 3.0 | 0.00 | 0.00 | 0.00 | 52 | 1012.5 |
| 20260831181251 | 92 | 228 | 3.0 | 4.0 | 0.00 | 0.00 | 0.00 | 53 | 1012.6 |
| 20260831180733 | 92 | 197 | 0.0 | 1.0 | 0.00 | 0.00 | 0.00 | 54 | 1012.5 |
| 20260831180227 | 92 | 238 | 1.0 | 3.0 | 0.00 | 0.00 | 0.00 | 55 | 1012.6 |
| 20260831175707 | 91 | 245 | 4.0 | 5.0 | 0.00 | 0.00 | 0.00 | 54 | 1012.5 |
| 20260831175147 | 91 | 229 | 4.0 | 5.0 | 0.00 | 0.00 | 0.00 | 53 | 1012.6 |
| 20260831174627 | 91 | 238 | 5.0 | 9.0 | 0.00 | 0.00 | 0.00 | 54 | 1012.8 |
| 20260831174108 | 91 | 260 | 6.0 | 9.0 | 0.00 | 0.00 | 0.00 | 54 | 1013.0 |
| 20260831173033 | 91 | 206 | 1.0 | 1.0 | 0.00 | 0.00 | 0.00 | 56 | 1013.0 |
| 20260831172433 | 91 | 266 | 3.0 | 3.0 | 0.00 | 0.00 | 0.00 | 56 | 1013.1 |
| 20260831171931 | 90 | 194 | 6.0 | 9.0 | 0.00 | 0.00 | 0.00 | 55 | 1013.1 |
| 20260831171411 | 90 | 211 | 4.0 | 6.0 | 0.00 | 0.00 | 0.00 | 57 | 1013.0 |
| 20260831170851 | 90 | 184 | 4.0 | 5.0 | 0.00 | 0.00 | 0.00 | 57 | 1013.1 |
| 20260831170331 | 90 | 276 | 5.0 | 5.0 | 0.00 | 0.00 | 0.00 | 57 | 1013.3 |
| 20260831165811 | 90 | 223 | 2.0 | 3.0 | 0.00 | 0.00 | 0.00 | 61 | 1013.3 |
| 20260831165251 | 90 | 256 | 4.0 | 5.0 | 0.00 | 0.00 | 0.00 | 61 | 1013.3 |
| 20260831164731 | 90 | 241 | 6.0 | 9.0 | 0.00 | 0.00 | 0.00 | 59 | 1013.3 |
| 20260831164211 | 89 | 245 | 2.0 | 4.0 | 0.00 | 0.00 | 0.00 | 66 | 1013.2 |
| 20260831163651 | 89 | 188 | 3.0 | 4.0 | 0.00 | 0.00 | 0.00 | 67 | 1013.4 |
| 20260831163131 | 88 | 251 | 2.0 | 3.0 | 0.00 | 0.00 | 0.00 | 67 | 1013.6 |
| 20260831162611 | 89 | 205 | 3.0 | 3.0 | 0.00 | 0.00 | 0.00 | 69 | 1013.5 |
| 20260831162051 | 88 | 213 | 2.0 | 2.0 | 0.00 | 0.00 | 0.00 | 70 | 1013.3 |
| 20260831161012 | 88 | 233 | 3.0 | 4.0 | 0.00 | 0.00 | 0.00 | 70 | 1013.2 |
| 20260831160451 | 88 | 165 | 0.0 | 1.0 | 0.00 | 0.00 | 0.00 | 69 | 1013.2 |
| 20260831155932 | 88 | 222 | 4.0 | 5.0 | 0.00 | 0.00 | 0.00 | 68 | 1013.3 |
| 20260831155411 | 88 | 214 | 2.0 | 3.0 | 0.00 | 0.00 | 0.00 | 69 | 1013.2 |
| 20260831154851 | 88 | 246 | 1.0 | 2.0 | 0.00 | 0.00 | 0.00 | 69 | 1013.2 |
| 20260831154331 | 87 | 192 | 1.0 | 3.0 | 0.00 | 0.00 | 0.00 | 72 | 1013.1 |
| 20260831153811 | 86 | 245 | 3.0 | 4.0 | 0.00 | 0.00 | 0.00 | 70 | 1013.3 |
| 20260831153251 | 87 | 203 | 4.0 | 6.0 | 0.00 | 0.00 | 0.00 | 71 | 1013.2 |
| 20260831152731 | 86 | 238 | 2.0 | 3.0 | 0.00 | 0.00 | 0.00 | 72 | 1013.2 |
| 20260831152211 | 86 | 221 | 2.0 | 3.0 | 0.00 | 0.00 | 0.00 | 75 | 1013.4 |
| 20260831151131 | 85 | 241 | 3.0 | 4.0 | 0.00 | 0.00 | 0.00 | 77 | 1013.3 |
| 20260831150611 | 84 | 212 | 2.0 | 3.0 | 0.00 | 0.00 | 0.00 | 78 | 1013.2 |
| 20260831150051 | 84 | 243 | 1.0 | 2.0 | 0.00 | 0.00 | 0.00 | 79 | 1013.0 |
| 20260831145531 | 84 | 204 | 0.0 | 1.0 | 0.00 | 0.00 | 0.00 | 80 | 1013.1 |
| 20260831144451 | 82 | 256 | 4.0 | 5.0 | 0.00 | 0.00 | 0.00 | 82 | 1013.1 |
| 20260831143931 | 82 | 196 | 0.0 | 2.0 | 0.00 | 0.00 | 0.00 | 83 | 1012.9 |
| 20260831143412 | 81 | 243 | 3.0 | 5.0 | 0.00 | 0.00 | 0.00 | 82 | 1013.4 |
| 20260831142851 | 81 | 176 | 0.0 | 1.0 | 0.00 | 0.00 | 0.00 | 85 | 1013.1 |
| 20260831142331 | 81 | 174 | 0.0 | 1.0 | 0.00 | 0.00 | 0.00 | 83 | 1013.0 |
| 20260831141811 | 80 | 157 | 2.0 | 3.0 | 0.00 | 0.00 | 0.00 | 85 | 1013.0 |
| 20260831141251 | 79 | 151 | 0.0 | 1.0 | 0.00 | 0.00 | 0.00 | 88 | 1013.1 |
| 20260831140731 | 77 | 235 | 1.0 | 2.0 | 0.00 | 0.00 | 0.00 | 90 | 1013.1 |
| 20260831140211 | 77 | 235 | 0.0 | 0.0 | 0.00 | 0.00 | 0.00 | 91 | 1013.1 |
| 20260831135651 | 77 | 217 | 0.0 | 0.0 | 0.00 | 0.00 | 0.00 | 91 | 1012.9 |
| 20260831135131 | 77 | 217 | 0.0 | 0.0 | 0.00 | 0.00 | 0.00 | 91 | 1012.8 |
| 20260831134611 | 76 | 217 | 0.0 | 0.0 | 0.00 | 0.00 | 0.00 | 91 | 1013.0 |
| 20260831134034 | 76 | 217 | 0.0 | 1.0 | 0.00 | 0.00 | 0.00 | 91 | 1013.0 |
| 20260831133516 | 76 | 204 | 0.0 | 0.0 | 0.00 | 0.00 | 0.00 | 92 | 1012.9 |
| 20260831132433 | 75 | 210 | 0.0 | 0.0 | 0.00 | 0.00 | 0.00 | 96 | 1012.7 |
| 20260831131916 | 74 | 210 | 0.0 | 0.0 | 0.00 | 0.00 | 0.00 | 99 | 1012.9 |
| 20260831131355 | 73 | 210 | 0.0 | 0.0 | 0.00 | 0.00 | 0.00 | 99 | 1012.7 |
| 20260831130833 | 72 | 210 | 0.0 | 0.0 | 0.00 | 0.00 | 0.00 | 99 | 1012.8 |
| 20260831130316 | 72 | 210 | 0.0 | 0.0 | 0.00 | 0.00 | 0.00 | 99 | 1013.0 |
| 20260831125756 | 72 | 210 | 0.0 | 0.0 | 0.00 | 0.00 | 0.00 | 99 | 1012.8 |
| 20260831124715 | 70 | 210 | 0.0 | 0.0 | 0.00 | 0.00 | 0.00 | 99 | 1012.7 |
| 20260831124156 | 69 | 210 | 0.0 | 0.0 | 0.00 | 0.00 | 0.00 | 99 | 1012.4 |
| 20260831123634 | 68 | 211 | 0.0 | 0.0 | 0.00 | 0.00 | 0.00 | 99 | 1012.5 |
| 20260831123033 | 69 | 211 | 0.0 | 0.0 | 0.00 | 0.00 | 0.00 | 99 | 1012.2 |
| 20260831122524 | 68 | 211 | 0.0 | 0.0 | 0.00 | 0.00 | 0.00 | 99 | 1012.4 |
| 20260831122004 | 66 | 211 | 0.0 | 0.0 | 0.00 | 0.00 | 0.00 | 99 | 1012.4 |
| 20260831121444 | 66 | 211 | 0.0 | 0.0 | 0.00 | 0.00 | 0.00 | 99 | 1012.3 |
| 20260831120933 | 66 | 211 | 0.0 | 0.0 | 0.00 | 0.00 | 0.00 | 99 | 1012.3 |
| 20260831120420 | 66 | 211 | 0.0 | 0.0 | 0.00 | 0.00 | 0.00 | 99 | 1012.2 |
| 20260831115900 | 65 | 211 | 0.0 | 0.0 | 0.00 | 0.00 | 0.00 | 99 | 1012.1 |
| 20260831115340 | 65 | 211 | 0.0 | 0.0 | 0.00 | 0.00 | 0.00 | 99 | 1012.3 |
| 20260831114820 | 65 | 211 | 0.0 | 0.0 | 0.00 | 0.00 | 0.00 | 99 | 1012.2 |
| 20260831114259 | 65 | 211 | 0.0 | 0.0 | 0.00 | 0.00 | 0.00 | 99 | 1012.3 |
| 20260831113734 | 65 | 211 | 0.0 | 0.0 | 0.00 | 0.00 | 0.00 | 99 | 1012.0 |
| 20260831113220 | 65 | 211 | 0.0 | 0.0 | 0.00 | 0.00 | 0.00 | 99 | 1012.2 |
| 20260831112700 | 65 | 211 | 0.0 | 0.0 | 0.00 | 0.00 | 0.00 | 99 | 1012.1 |
| 20260831112133 | 64 | 211 | 0.0 | 0.0 | 0.00 | 0.00 | 0.00 | 99 | 1012.2 |
| 20260831111619 | 64 | 211 | 0.0 | 0.0 | 0.00 | 0.00 | 0.00 | 99 | 1012.1 |
| 20260831111059 | 65 | 211 | 0.0 | 0.0 | 0.00 | 0.00 | 0.00 | 99 | 1012.2 |
| 20260831110033 | 65 | 211 | 0.0 | 0.0 | 0.00 | 0.00 | 0.00 | 99 | 1011.8 |
| 20260831105516 | 65 | 211 | 0.0 | 0.0 | 0.00 | 0.00 | 0.00 | 99 | 1011.9 |
| 20260831104955 | 66 | 211 | 0.0 | 0.0 | 0.00 | 0.00 | 0.00 | 99 | 1011.8 |
| 20260831104433 | 66 | 211 | 0.0 | 0.0 | 0.00 | 0.00 | 0.00 | 99 | 1011.7 |
| 20260831103916 | 66 | 211 | 0.0 | 0.0 | 0.00 | 0.00 | 0.00 | 99 | 1011.6 |
| 20260831103356 | 65 | 211 | 0.0 | 0.0 | 0.00 | 0.00 | 0.00 | 99 | 1011.9 |
| 20260831102833 | 65 | 211 | 0.0 | 0.0 | 0.00 | 0.00 | 0.00 | 99 | 1011.8 |
| 20260831101756 | 65 | 211 | 0.0 | 0.0 | 0.00 | 0.00 | 0.00 | 99 | 1011.6 |
| 20260831101233 | 65 | 211 | 0.0 | 0.0 | 0.00 | 0.00 | 0.00 | 99 | 1011.7 |
| 20260831100716 | 65 | 211 | 0.0 | 0.0 | 0.00 | 0.00 | 0.00 | 99 | 1011.5 |
| 20260831100156 | 65 | 211 | 0.0 | 0.0 | 0.00 | 0.00 | 0.00 | 99 | 1011.6 |
| 20260831095633 | 65 | 211 | 0.0 | 0.0 | 0.00 | 0.00 | 0.00 | 99 | 1011.5 |
| 20260831095116 | 65 | 211 | 0.0 | 0.0 | 0.00 | 0.00 | 0.00 | 99 | 1011.6 |
| 20260831094556 | 66 | 211 | 0.0 | 0.0 | 0.00 | 0.00 | 0.00 | 99 | 1011.5 |
| 20260831094033 | 66 | 211 | 0.0 | 0.0 | 0.00 | 0.00 | 0.00 | 99 | 1011.5 |
| 20260831093516 | 66 | 211 | 0.0 | 0.0 | 0.00 | 0.00 | 0.00 | 99 | 1011.4 |
| 20260831092956 | 66 | 211 | 0.0 | 0.0 | 0.00 | 0.00 | 0.00 | 99 | 1011.5 |
| 20260831092433 | 65 | 211 | 0.0 | 0.0 | 0.00 | 0.00 | 0.00 | 99 | 1011.6 |
| 20260831091916 | 65 | 211 | 0.0 | 0.0 | 0.00 | 0.00 | 0.00 | 99 | 1011.5 |
| 20260831091356 | 66 | 211 | 0.0 | 0.0 | 0.00 | 0.00 | 0.00 | 99 | 1011.8 |
| 20260831090833 | 66 | 211 | 0.0 | 0.0 | 0.00 | 0.00 | 0.00 | 99 | 1011.8 |
| 20260831090332 | 66 | 211 | 0.0 | 0.0 | 0.00 | 0.00 | 0.00 | 99 | 1011.5 |
| 20260831085812 | 66 | 211 | 0.0 | 0.0 | 0.00 | 0.00 | 0.00 | 99 | 1011.5 |
| 20260831085252 | 66 | 211 | 0.0 | 0.0 | 0.00 | 0.00 | 0.00 | 99 | 1011.6 |
| 20260831084732 | 66 | 211 | 0.0 | 0.0 | 0.00 | 0.00 | 0.00 | 99 | 1011.7 |
| 20260831084212 | 66 | 211 | 0.0 | 0.0 | 0.00 | 0.00 | 0.00 | 99 | 1011.7 |
| 20260831083652 | 66 | 211 | 0.0 | 0.0 | 0.00 | 0.00 | 0.00 | 99 | 1011.5 |
| 20260831083133 | 66 | 211 | 0.0 | 0.0 | 0.00 | 0.00 | 0.00 | 99 | 1011.3 |
| 20260831082628 | 66 | 211 | 0.0 | 0.0 | 0.00 | 0.00 | 0.00 | 99 | 1011.4 |
| 20260831082108 | 65 | 211 | 0.0 | 0.0 | 0.00 | 0.00 | 0.00 | 99 | 1011.5 |
| 20260831081548 | 66 | 211 | 0.0 | 0.0 | 0.00 | 0.00 | 0.00 | 99 | 1011.3 |
| 20260831081028 | 66 | 211 | 0.0 | 0.0 | 0.00 | 0.00 | 0.00 | 99 | 1011.4 |
| 20260831080508 | 66 | 211 | 0.0 | 0.0 | 0.00 | 0.00 | 0.00 | 99 | 1011.3 |
| 20260831075948 | 66 | 211 | 0.0 | 0.0 | 0.00 | 0.00 | 0.00 | 99 | 1011.5 |
| 20260831075428 | 66 | 211 | 0.0 | 0.0 | 0.00 | 0.00 | 0.00 | 99 | 1011.5 |
| 20260831074908 | 66 | 211 | 0.0 | 0.0 | 0.00 | 0.00 | 0.00 | 99 | 1011.4 |
| 20260831074348 | 66 | 211 | 0.0 | 0.0 | 0.00 | 0.00 | 0.00 | 99 | 1011.3 |
| 20260831073828 | 66 | 211 | 0.0 | 0.0 | 0.00 | 0.00 | 0.00 | 99 | 1011.2 |
| 20260831073308 | 66 | 211 | 0.0 | 0.0 | 0.00 | 0.00 | 0.00 | 99 | 1011.2 |
| 20260831072748 | 67 | 211 | 0.0 | 0.0 | 0.00 | 0.00 | 0.00 | 99 | 1011.4 |
| 20260831072228 | 67 | 211 | 0.0 | 0.0 | 0.00 | 0.00 | 0.00 | 99 | 1011.6 |
| 20260831071708 | 67 | 211 | 0.0 | 0.0 | 0.00 | 0.00 | 0.00 | 99 | 1011.6 |
| 20260831071148 | 67 | 211 | 0.0 | 0.0 | 0.00 | 0.00 | 0.00 | 99 | 1011.4 |
| 20260831070633 | 67 | 211 | 0.0 | 0.0 | 0.00 | 0.00 | 0.00 | 99 | 1011.4 |
| 20260831070033 | 68 | 211 | 0.0 | 0.0 | 0.00 | 0.00 | 0.00 | 99 | 1011.7 |
| 20260831065434 | 68 | 211 | 0.0 | 0.0 | 0.00 | 0.00 | 0.00 | 99 | 1011.4 |
| 20260831064833 | 68 | 211 | 0.0 | 0.0 | 0.00 | 0.00 | 0.00 | 99 | 1011.6 |
| 20260831064233 | 67 | 211 | 0.0 | 0.0 | 0.00 | 0.00 | 0.00 | 99 | 1011.8 |